| time (UTC) | temp F | wind direction | speed MPH | gust MPH | rain 1hr in | rain 24hr in | rain mn in | humidity % | barometer mb |
| 20260509180007 | 49 | 90 | 2.0 | 6.0 | 0.00 | 0.00 | 0.00 | 41 | 1019.2 |
| 20260509174507 | 49 | 90 | 3.0 | 7.0 | 0.00 | 0.00 | 0.00 | 40 | 1018.8 |
| 20260509171506 | 51 | 90 | 2.0 | 4.0 | 0.00 | 0.00 | 0.00 | 39 | 1018.9 |
| 20260509170008 | 51 | 90 | 2.0 | 4.0 | 0.00 | 0.00 | 0.00 | 38 | 1019.1 |
| 20260509164508 | 52 | 90 | 3.0 | 5.0 | 0.00 | 0.00 | 0.00 | 37 | 1019.0 |
| 20260509163007 | 53 | 90 | 3.0 | 6.0 | 0.00 | 0.00 | 0.00 | 34 | 1019.0 |
| 20260509161506 | 54 | 90 | 3.0 | 4.0 | 0.00 | 0.00 | 0.00 | 33 | 1019.1 |
| 20260509154506 | 56 | 90 | 4.0 | 9.0 | 0.00 | 0.00 | 0.00 | 32 | 1019.3 |
| 20260509144507 | 57 | 57 | 4.0 | 11.0 | 0.00 | 0.00 | 0.00 | 32 | 1019.3 |
| 20260509143006 | 58 | 90 | 3.0 | 7.0 | 0.00 | 0.00 | 0.00 | 32 | 1019.2 |
| 20260509140006 | 60 | 86 | 3.0 | 8.0 | 0.00 | 0.00 | 0.00 | 34 | 1019.2 |
| 20260509131506 | 54 | 33 | 3.0 | 8.0 | 0.00 | 0.00 | 0.00 | 33 | 1019.5 |
| 20260509130006 | 54 | 355 | 3.0 | 8.0 | 0.00 | 0.00 | 0.00 | 33 | 1019.7 |
| 20260509124507 | 54 | 8 | 4.0 | 10.0 | 0.00 | 0.00 | 0.00 | 34 | 1019.6 |
| 20260509123006 | 54 | 46 | 3.0 | 7.0 | 0.00 | 0.00 | 0.00 | 33 | 1019.7 |
| 20260509121506 | 55 | 46 | 4.0 | 7.0 | 0.00 | 0.00 | 0.00 | 32 | 1019.8 |
| 20260509120007 | 56 | 18 | 3.0 | 7.0 | 0.00 | 0.00 | 0.00 | 34 | 1019.9 |
| 20260509114506 | 54 | 87 | 4.0 | 8.0 | 0.00 | 0.00 | 0.00 | 33 | 1019.7 |
| 20260509113006 | 55 | 90 | 4.0 | 8.0 | 0.00 | 0.00 | 0.00 | 33 | 1019.8 |
| 20260509104506 | 54 | 90 | 4.0 | 8.0 | 0.00 | 0.00 | 0.00 | 33 | 1019.8 |
| 20260509103006 | 54 | 59 | 4.0 | 9.0 | 0.00 | 0.00 | 0.00 | 34 | 1019.9 |
| 20260509093005 | 54 | 113 | 3.0 | 7.0 | 0.00 | 0.00 | 0.00 | 35 | 1019.8 |
| 20260509090006 | 53 | 45 | 3.0 | 5.0 | 0.00 | 0.00 | 0.00 | 36 | 1019.8 |
| 20260509084505 | 53 | 166 | 4.0 | 7.0 | 0.00 | 0.00 | 0.00 | 35 | 1019.9 |
| 20260509081505 | 54 | 107 | 3.0 | 8.0 | 0.00 | 0.00 | 0.00 | 37 | 1019.8 |
| 20260509080006 | 53 | 139 | 3.0 | 5.0 | 0.00 | 0.00 | 0.00 | 38 | 1019.8 |
| 20260509074506 | 52 | 135 | 2.0 | 6.0 | 0.00 | 0.00 | 0.00 | 41 | 1019.8 |
| 20260509073006 | 52 | 135 | 3.0 | 6.0 | 0.00 | 0.00 | 0.00 | 40 | 1019.8 |
| 20260509071506 | 52 | 135 | 3.0 | 6.0 | 0.00 | 0.00 | 0.00 | 43 | 1019.7 |
| 20260509070005 | 51 | 135 | 3.0 | 8.0 | 0.00 | 0.00 | 0.00 | 45 | 1019.8 |
| 20260509064505 | 51 | 86 | 2.0 | 6.0 | 0.00 | 0.00 | 0.00 | 48 | 1019.9 |
| 20260509063005 | 49 | 135 | 2.0 | 4.0 | 0.00 | 0.00 | 0.00 | 52 | 1019.8 |
| 20260509060005 | 47 | 80 | 2.0 | 4.0 | 0.00 | 0.00 | 0.00 | 57 | 1019.5 |
| 20260509054505 | 46 | 124 | 2.0 | 4.0 | 0.00 | 0.00 | 0.00 | 61 | 1019.4 |
| 20260509051505 | 44 | 90 | 2.0 | 4.0 | 0.00 | 0.00 | 0.00 | 63 | 1019.2 |
| 20260509044505 | 43 | 90 | 1.0 | 4.0 | 0.00 | 0.00 | 0.00 | 67 | 1019.0 |
| 20260509043005 | 42 | 90 | 2.0 | 4.0 | 0.00 | 0.00 | 0.00 | 66 | 1019.2 |
| 20260509041507 | 41 | 90 | 2.0 | 4.0 | 0.00 | 0.00 | 0.00 | 65 | 1018.9 |
| 20260509034505 | 41 | 90 | 2.0 | 4.0 | 0.00 | 0.00 | 0.00 | 65 | 1018.9 |
| 20260509033004 | 41 | 90 | 3.0 | 5.0 | 0.00 | 0.00 | 0.00 | 65 | 1018.7 |
| 20260509031505 | 41 | 90 | 2.0 | 4.0 | 0.00 | 0.00 | 0.00 | 65 | 1019.0 |
| 20260509030005 | 42 | 90 | 2.0 | 4.0 | 0.00 | 0.00 | 0.00 | 65 | 1018.9 |
| 20260509020005 | 42 | 104 | 2.0 | 4.0 | 0.00 | 0.00 | 0.00 | 63 | 1018.9 |
| 20260509014504 | 42 | 111 | 1.0 | 3.0 | 0.00 | 0.00 | 0.00 | 62 | 1018.9 |
| 20260509013005 | 42 | 112 | 2.0 | 4.0 | 0.00 | 0.00 | 0.00 | 62 | 1019.1 |
| 20260509011505 | 42 | 111 | 1.0 | 3.0 | 0.00 | 0.00 | 0.00 | 62 | 1018.9 |
| 20260509010004 | 42 | 111 | 1.0 | 3.0 | 0.00 | 0.00 | 0.00 | 61 | 1018.9 |
| 20260509004505 | 43 | 111 | 1.0 | 2.0 | 0.00 | 0.00 | 0.00 | 62 | 1019.1 |
| 20260509000004 | 43 | 111 | 0.0 | 2.0 | 0.00 | 0.00 | 0.00 | 62 | 1019.4 |
| 20260508234504 | 44 | 111 | 1.0 | 3.0 | 0.00 | 0.00 | 0.00 | 63 | 1019.5 |
| 20260508233004 | 44 | 111 | 2.0 | 4.0 | 0.00 | 0.00 | 0.00 | 64 | 1019.4 |
| 20260508231508 | 44 | 111 | 2.0 | 4.0 | 0.00 | 0.00 | 0.00 | 64 | 1019.5 |
| 20260508230008 | 44 | 119 | 2.0 | 4.0 | 0.00 | 0.00 | 0.00 | 64 | 1019.6 |
| 20260508224508 | 44 | 71 | 2.0 | 4.0 | 0.00 | 0.00 | 0.00 | 64 | 1019.4 |
| 20260508223008 | 43 | 89 | 3.0 | 6.0 | 0.00 | 0.00 | 0.00 | 63 | 1019.4 |
| 20260508220011 | 44 | 91 | 5.0 | 7.0 | 0.00 | 0.00 | 0.00 | 59 | 1019.2 |
| 20260508214508 | 44 | 89 | 5.0 | 8.0 | 0.00 | 0.00 | 0.00 | 57 | 1019.1 |
| 20260508213007 | 44 | 70 | 4.0 | 7.0 | 0.00 | 0.00 | 0.00 | 56 | 1019.1 |
| 20260508211508 | 44 | 51 | 4.0 | 8.0 | 0.00 | 0.00 | 0.00 | 56 | 1018.9 |
| 20260508210008 | 45 | 90 | 4.0 | 8.0 | 0.00 | 0.00 | 0.00 | 55 | 1018.9 |
| 20260508204507 | 45 | 90 | 4.0 | 6.0 | 0.00 | 0.00 | 0.00 | 54 | 1018.9 |
| 20260508203007 | 45 | 90 | 3.0 | 5.0 | 0.00 | 0.00 | 0.00 | 53 | 1018.9 |
| 20260508200007 | 46 | 90 | 3.0 | 4.0 | 0.00 | 0.00 | 0.00 | 52 | 1018.7 |
| 20260508194507 | 46 | 90 | 3.0 | 7.0 | 0.00 | 0.00 | 0.00 | 52 | 1018.7 |
| 20260508191507 | 46 | 111 | 2.0 | 4.0 | 0.00 | 0.00 | 0.00 | 49 | 1018.5 |
| 20260508190007 | 47 | 111 | 2.0 | 6.0 | 0.00 | 0.00 | 0.00 | 47 | 1018.2 |
| 20260508184507 | 47 | 135 | 3.0 | 5.0 | 0.00 | 0.00 | 0.00 | 45 | 1018.3 |
| 20260508183007 | 48 | 135 | 2.0 | 4.0 | 0.00 | 0.00 | 0.00 | 44 | 1018.2 |
| 20260508181507 | 49 | 135 | 2.0 | 4.0 | 0.00 | 0.00 | 0.00 | 43 | 1018.0 |